Cape Disappointment WA US NWS current weather conditions

sailwx.info

Wind from 177 at 23 knots gusting 26

Last reported at 2019-Oct-16 01:00 UTC.
Time now 2019-Oct-16 02:57 UTC

Location: N 46°17' W 124°03'.
View on Google Maps.

See reports from other nearby stations

  
Tides and Currents Weather Stations Pressure Air Temp Water Temp Dewpoint Dewpoint Depression Visibility Wind Speed Wind Dir Waves Ship Positions
date/time (UTC)wind fromknots sea level pressurealtimeterstation pressurevisibilityair tempwater tempwave heightnotes
2019-Oct-16 02:00 175 15
2019-Oct-16 01:45 176 18 gusting 23
2019-Oct-16 01:30 180 19
2019-Oct-16 01:15 177 21 gusting 25
2019-Oct-16 01:00 177 23 gusting 26
2019-Oct-16 00:45 176 20 gusting 28
2019-Oct-16 00:00 179 21 gusting 26
2019-Oct-15 23:45 178 21 gusting 26
2019-Oct-15 23:30 171 23
2019-Oct-15 23:00 169 25 gusting 28
2019-Oct-15 22:45 168 24 gusting 28
2019-Oct-15 22:30 170 23 gusting 28
2019-Oct-15 22:00 169 24 gusting 26
2019-Oct-15 21:45 171 20
2019-Oct-15 21:30 165 22 gusting 26
2019-Oct-15 21:00 164 20
2019-Oct-15 20:45 166 20 gusting 24
2019-Oct-15 20:30 167 20
2019-Oct-15 20:00 172 18 gusting 23
2019-Oct-15 19:45 172 18
2019-Oct-15 19:30 175 18
2019-Oct-15 19:00 185 19 gusting 25
2019-Oct-15 18:45 158 19 gusting 24
2019-Oct-15 18:30 162 20
2019-Oct-15 18:00 169 18
2019-Oct-15 17:45 163 20
2019-Oct-15 17:30 172 19
2019-Oct-15 17:00 172 17
2019-Oct-15 16:45 169 15
2019-Oct-15 16:30 173 14
2019-Oct-15 16:00 170 14
2019-Oct-15 15:45 160 11
2019-Oct-15 15:30 162 11
2019-Oct-15 15:00 150 12
2019-Oct-15 14:45 152 13
2019-Oct-15 14:30 142 13
2019-Oct-15 14:00 136 13
2019-Oct-15 13:45 133 12
2019-Oct-15 13:30 128 10 gusting 15
2019-Oct-15 13:00 133 12
2019-Oct-15 12:45 130 11
2019-Oct-15 12:30 130 13
2019-Oct-15 12:00 134 10
2019-Oct-15 11:45 134 14
2019-Oct-15 11:30 130 11 gusting 14
2019-Oct-15 11:00 131 9 gusting 13
2019-Oct-15 10:45 134 7
2019-Oct-15 10:30 128 4
2019-Oct-15 10:00 127 8
2019-Oct-15 09:45 129 7 gusting 13
2019-Oct-15 09:30 133 8
2019-Oct-15 09:00 126 4
2019-Oct-15 08:45 133 8
2019-Oct-15 08:30 134 9
2019-Oct-15 08:00 135 10
2019-Oct-15 07:45 136 9
2019-Oct-15 07:30 136 11
2019-Oct-15 07:00 134 8
2019-Oct-15 06:45 134 11 gusting 15
2019-Oct-15 06:30 129 9
2019-Oct-15 06:00 105 6
2019-Oct-15 05:45
2019-Oct-15 05:30 114 6
2019-Oct-15 05:00 111 4
2019-Oct-15 04:45 089 4
2019-Oct-15 04:30 057 3
2019-Oct-15 04:00 028 3
2019-Oct-15 03:45 027 4
2019-Oct-15 03:30 027 6
2019-Oct-15 03:00 034 5
2019-Oct-15 02:45 025 5
2019-Oct-15 02:30 027 6
2019-Oct-15 02:00 079 4
2019-Oct-15 01:45 095 4
2019-Oct-15 01:30 117 4
2019-Oct-15 01:15 160 4
2019-Oct-15 01:00 225 3
2019-Oct-15 00:45 225 3
2019-Oct-15 00:00 332 6
2019-Oct-14 23:45 332 6
2019-Oct-14 23:30 306 4
2019-Oct-14 23:00 321 6
2019-Oct-14 22:45 313 4
2019-Oct-14 22:30 313 4
2019-Oct-14 22:00 243 2
2019-Oct-14 21:45 243 2
2019-Oct-14 21:30 224 2
2019-Oct-14 21:00 190 3
2019-Oct-14 20:45 190 4
2019-Oct-14 20:30 194 3
2019-Oct-14 20:00 149 6
2019-Oct-14 19:45 145 6
2019-Oct-14 19:30 143 7
2019-Oct-14 19:00 154 6
2019-Oct-14 18:45 143 7
2019-Oct-14 18:30 137 7
2019-Oct-14 18:00 134 8
2019-Oct-14 17:45 134 9
2019-Oct-14 17:30 136 8
2019-Oct-14 17:00 135 9
2019-Oct-14 16:45 135 9
2019-Oct-14 16:30 135 7
2019-Oct-14 16:00 136 7
2019-Oct-14 15:45 135 7
2019-Oct-14 15:30 134 8
2019-Oct-14 15:00 117 6
2019-Oct-14 14:45 115 6
2019-Oct-14 14:30 133 6
2019-Oct-14 14:00 126 6
2019-Oct-14 13:45 132 5
2019-Oct-14 13:30 131 5
2019-Oct-14 13:00 145 5
2019-Oct-14 12:45 139 6
2019-Oct-14 12:30 139 6
2019-Oct-14 12:00 145 6
2019-Oct-14 11:45 142 5
2019-Oct-14 11:30 135 6
2019-Oct-14 11:00 144 6
2019-Oct-14 10:45 129 5
2019-Oct-14 10:30 135 5
2019-Oct-14 10:00 121 4
2019-Oct-14 09:45 125 2
2019-Oct-14 09:30 145 3
2019-Oct-14 09:00 109 3
2019-Oct-14 08:45
2019-Oct-14 08:30
2019-Oct-14 08:00
2019-Oct-14 07:45
2019-Oct-14 07:30 013 2
2019-Oct-14 07:00
2019-Oct-14 06:45
2019-Oct-14 06:30
2019-Oct-14 06:00
2019-Oct-14 05:45 184 2
2019-Oct-14 05:30 033 3
2019-Oct-14 05:00 046 2
2019-Oct-14 04:45 142 2
2019-Oct-14 04:30 315 5
2019-Oct-14 04:00 235 5
2019-Oct-14 03:45 296 5
2019-Oct-14 03:30 341 7 gusting 12
2019-Oct-14 03:00 274 5
2019-Oct-14 02:45 278 6
2019-Oct-14 02:30 298 6
2019-Oct-14 02:00 287 5